Regional Weather Roundup
Issued by NWS

Home | Current Version | Previous Version | Graphics & Text | Print | Product List | Glossary On
Versions: 1 2 3 4 5 6 7 8 9 10 11 12 13 14 15 16 17 18 19 20 21 22 23 24 25 26 27 28 29 30 31 32 33 34 35 36 37 38 39 40 41 42 43 44 45 46 47 48 49 50
684
ASUS44 KJAN 212003
RWRMS

MISSISSIPPI HOURLY WEATHER ROUNDUP
NATIONAL WEATHER SERVICE JACKSON MS
200 PM CST SUN DEC 21 2014

NOTE: "FAIR: INDICATES FEW OR NO CLOUDS BELOW 12,000 FEET WITH NO
SIGNIFICANT WEATHER AND/OR OBSTRUCTIONS TO VISIBILITY.

MSZ001>002-007>008-010>013-018>021-025>028-034>036-212100-
NORTHWEST MISSISSIPPI

CITY           SKY/WX    TMP DP  RH WIND       PRES   REMARKS
CLARKSDALE     FAIR      55  36  47 CALM      30.06F
CLEVELAND      FAIR      57  36  45 SE5       30.04F
GREENWOOD      SUNNY     60  42  51 E6        30.04F
GREENVILLE     SUNNY     57  36  45 SE3       30.04F
GRENADA        FAIR      55  37  50 CALM      30.05F
OLIVE BRANCH   MOSUNNY   54  34  47 SE8       30.05F
OXFORD         FAIR      55  32  41 S3        30.07F
TUNICA         PTCLDY    55  34  44 SE3       30.06F
$$

MSZ003>006-009-014>017-022>024-029>033-037>039-212100-
NORTHEAST MISSISSIPPI

CITY           SKY/WX    TMP DP  RH WIND       PRES   REMARKS
COLUMBUS AFB   CLOUDY    51  43  74 CALM      30.07F
CORINTH        FAIR      55  34  44 SW6       30.05F
GOLDN TRIANGLE CLOUDY    52  43  71 CALM      30.07F
STARKVILLE     CLOUDY    52  45  76 NE3       30.07F
TUPELO         SUNNY     54  38  54 S8        30.07F
$$

MSZ040-058-212100-
CENTRAL MISSISSIPPI

CITY           SKY/WX    TMP DP  RH WIND       PRES   REMARKS
JACKSON INTL   MOSUNNY   60  46  59 VRB7      30.03F
JACKSON HAWKNS MOSUNNY   59  46  62 E6        30.03F
MERIDIAN KEY   CLOUDY    53  46  77 NE3       30.05F
MERIDIAN NAS   CLOUDY    49  45  86 NE5       30.07F
RAYMOND        FAIR      63  57  82 S3        30.03F
VICKSBURG      SUNNY     60  47  61 VRB3      30.03F
$$

MSZ059>079-212100-
SOUTH MISSISSIPPI

CITY           SKY/WX    TMP DP  RH WIND       PRES   REMARKS
HATTIESBURG    CLOUDY    54  48  80 E6        30.05F
MCCOMB         PTSUNNY   59  49  69 N3        30.02F
NATCHEZ        SUNNY     61  48  63 CALM      30.01F
PINE BELT      CLOUDY    52  46  82 E3        30.05F
$$

MSZ080>082-212100-
COASTAL MISSISSIPPI

CITY           SKY/WX    TMP DP  RH WIND       PRES   REMARKS
BAY ST LOUIS     N/A     57  48  72 SE5       30.03F
BILOXI         NOT AVBL
PASCAGOULA     CLOUDY    57  53  86 E3        30.04F
GULFPORT       CLOUDY    58  52  80 SE7       30.02F
$$



USA.gov is the U.S. government's official web portal to all federal, state and local government web resources and services.